User: anonymous   Login
Location: Unspecified
(43.4680°N, 87.1740°E)
Time: 03:48:07
(UTC+00:00)
Language:

SL-4 R/B - Orbit

View from above orbital plane
View from above orbital plane
View from above satellite
View from above satellite

Ground track
Ground track

The orbit data is extracted from the following two-line orbital elements,

1 39679U 14021B   21174.42438403  .00000012  00000-0  18873-4 0  9999
2 39679  51.6141 185.1603 0170276 151.6846 209.3509 15.07007669394951
Epoch (UTC): 23 June 2021 10:11:06
Eccentricity: 0.0170276
inclination: 51.6141°
perigee height: 427 km
apogee height: 663 km
right ascension of ascending node: 185.1603°
argument of perigee: 151.6846°
revolutions per day: 15.07007669
mean anomaly at epoch: 209.3509°
orbit number at epoch: 39495

The dashed part of the orbit path shows where the satellite is in the earth's shadow,  

DLR